Weather Roundup
Issued by NWS Chicago, IL

Home | Current Version | Previous Version | Text Only | Print | Product List | Glossary On
Versions: 1 2 3 4 5 6 7 8 9 10 11 12 13 14 15 16 17 18 19 20 21 22 23 24 25 26 27 28 29 30 31 32 33 34 35 36 37 38 39 40 41 42 43 44 45 46 47 48 49 50
000
NZUS59 KLOT 190510
HRRLOT

CHICAGO AREA WEATHER ROUNDUP
NATIONAL WEATHER SERVICE CHICAGO/ROMEOVILLE IL
1200 AM CDT FRI SEP 19 2014

NOTE: "FAIR" INDICATES FEW OR NO CLOUDS BELOW 12,000 FEET WITH NO
SIGNIFICANT WEATHER AND/OR OBSTRUCTIONS TO VISIBILITY.

* THESE STATIONS ARE NOT UNDER NWS QUALITY CONTROL. THEY ALSO MAY NOT
  REPORT WEATHER SUCH AS PRECIPITATION OR FOG.

ILZ005-006-012>014-019>023-190600-
NORTHEAST ILLINOIS

CITY           SKY/WX    TMP DP  RH WIND       PRES   REMARKS
OHARE          PTCLDY    58  52  80 CALM      30.17R
MIDWAY         CLEAR     61  58  90 NE3       30.16R
AURORA         CLEAR     52  50  93 NE6       30.17R FOG
LANSING*       PTCLDY    56  55  98 CALM      30.16S FOG
JOLIET*        CLEAR     56  54  92 NE5       30.17R FOG
WAUKEGAN       MOCLDY    54  53  97 NE6       30.17R FOG
DUPAGE AIRPORT PTCLDY    52  50  93 N5        30.16R FOG
WHEELING       MOCLDY    54  51  90 CALM      30.19R
KANKAKEE*        N/A     54  54  98 CALM      30.15S FOG
MORRIS*        CLEAR     52  52 100 CALM      30.16R FOG
LEWIS AIRPORT* CLEAR     56  56  99 E8        30.16R FOG
NORTHERLY IS     N/A     60  57  89 MISG        N/A
$$

WIZ051-052-058>065-066-070>072-190600-
SOUTHEAST WISCONSIN

CITY           SKY/WX    TMP DP  RH WIND       PRES   REMARKS
MILWAUKEE      CLEAR     51  49  92 CALM      30.18R
KENOSHA*       MOCLDY    50  50 100 E5        30.17F FOG
RACINE*        MOCLDY    52  50  93 CALM      30.19R
BURLINGTON       N/A     44  44 100 CALM      30.17S FOG
WAUKESHA       CLOUDY    50  50 100 E6        30.18S FOG
WEST BEND      FOG       43  41  93 CALM      30.18R VSB<1/4
$$

INZ001>003-010>013-019-020-190600-
NORTHWEST INDIANA

CITY           SKY/WX    TMP DP  RH WIND       PRES   REMARKS
GARY*          CLEAR     59  56  90 E5        30.16R
MICHIGAN CITY* NOT AVBL
RENSSELAER*    NOT AVBL
VALPARAISO     CLEAR     53  50  89 E5        30.17R
$$

LMZ740>746-190600-
SOUTHERN LAKE MICHIGAN

STATION/POSITION TIME  SKY/WX   TEMP WIND        PRES    VSBY
                                AIR  DIR/SP/G
                 (UTC)          (F)  (DEG/KT/KT) (MB)    (MI)
HARRISON CRIB    0500            61   20/  4/  4   N/A
BURNHAM HARBOR   0500            60  360/  4/  7   N/A
CALUMET HARBOR   0500            61   20/  3/  4 1020.1S
BURNS HARBOR     NOT AVBL
MICHIGAN CITY    0500            58   90/  8/ 10   N/A
$$

ABBREVIATIONS USED IN REMARKS
   TC - TEMPERATURE IN CELSIUS
  WCI - WIND CHILL INDEX
   HX - HEAT INDEX
  VSB - VISIBILITY
$$



USA.gov is the U.S. government's official web portal to all federal, state and local government web resources and services.